This is the latest recevied weather packets stored in our database for station/object Winterlng. If no packets are shown the sender has not sent any weather packets the latest 10 day(s).
| Time | Temp. | Humidity | Pressure | Rain* | Wind** | Luminosity | Snow |
|---|---|---|---|---|---|---|---|
| 1777696331 | 5.56° C | 74% | 0 hPa | 0 mm | - | - | - |
| 1777694533 | 4.44° C | 75% | 0 hPa | 0 mm | - | - | - |
| 1777692731 | 5° C | 74% | 0 hPa | 0 mm | - | - | - |
| 1777690931 | 5.56° C | 72% | 0 hPa | 0 mm | - | - | - |
| 1777689134 | 6.11° C | 69% | 0 hPa | 0 mm | - | - | - |
| 1777687332 | 6.67° C | 68% | 0 hPa | 0 mm | - | - | - |
| 1777685532 | 7.78° C | 65% | 0 hPa | 0 mm | - | - | - |
| 1777683731 | 8.89° C | 60% | 0 hPa | 0 mm | - | - | - |
| 1777681929 | 8.89° C | 61% | 0 hPa | 0 mm | - | - | - |
| 1777680129 | 8.33° C | 61% | 0 hPa | 0 mm | - | - | - |
| 1777678331 | 8.89° C | 59% | 0 hPa | 0 mm | - | - | - |
| 1777676530 | 8.89° C | 60% | 0 hPa | 0 mm | - | - | - |
| 1777674730 | 9.44° C | 58% | 0 hPa | 0 mm | - | - | - |
| 1777672931 | 10.56° C | 55% | 0 hPa | 0 mm | - | - | - |
| 1777671130 | 11.67° C | 51% | 0 hPa | 0 mm | - | - | - |
| 1777669330 | 12.22° C | 49% | 0 hPa | 0 mm | - | - | - |
| 1777667529 | 12.78° C | 46% | 0 hPa | 0 mm | - | - | - |
| 1777665732 | 13.89° C | 44% | 0 hPa | 0 mm | - | - | - |
| 1777663929 | 13.89° C | 43% | 0 hPa | 0 mm | - | - | - |
| 1777662130 | 15° C | 41% | 0 hPa | 0 mm | - | - | - |
| 1777660331 | 16.67° C | 38% | 0 hPa | 0 mm | - | - | - |
| 1777658531 | 17.22° C | 34% | 0 hPa | 0 mm | - | - | - |
| 1777656731 | 18.33° C | 33% | 0 hPa | 0 mm | - | - | - |
| 1777654930 | 18.33° C | 32% | 0 hPa | 0 mm | - | - | - |
| 1777653130 | 18.89° C | 32% | 0 hPa | 0 mm | - | - | - |
* Rain since midnight (hover to see other rain measurements)
** Current wind speed in m/s (hover to see current wind gust speed)